Time,TemperatureF,DewpointF,PressureIn,WindDirection,WindDirectionDegrees,WindSpeedMPH,WindSpeedGustMPH,Humidity,HourlyPrecipIn,Conditions,Clouds,dailyrainin,SoftwareType,DateUTC
2013-03-20 00:02:00,10.0,-9.0,30.22,West,281,8.0,-999.0,40,-99.99,,,-99.99,,2013-03-20 05:02:00,
2013-03-20 00:12:00,9.0,-9.0,30.22,WNW,293,7.0,-999.0,42,-99.99,,,-99.99,,2013-03-20 05:12:00,
2013-03-20 00:22:00,9.0,-9.0,30.22,WNW,293,7.0,-999.0,42,-99.99,,,-99.99,,2013-03-20 05:22:00,
2013-03-20 00:32:00,9.0,-9.0,30.22,WNW,293,7.0,-999.0,42,-99.99,,,-99.99,,2013-03-20 05:32:00,
2013-03-20 00:43:00,9.0,-9.0,30.22,WNW,293,7.0,-999.0,42,-99.99,,,-99.99,,2013-03-20 05:43:00,
2013-03-20 00:53:00,9.0,-9.0,30.22,WNW,298,13.0,-999.0,42,-99.99,,,-99.99,,2013-03-20 05:53:00,
2013-03-20 01:02:00,9.0,-9.0,30.22,WNW,298,13.0,-999.0,42,-99.99,,,-99.99,,2013-03-20 06:02:00,
2013-03-20 01:12:00,9.0,-9.0,30.22,WNW,298,13.0,-999.0,42,-99.99,,,-99.99,,2013-03-20 06:12:00,
2013-03-20 01:22:00,9.0,-8.0,30.23,WNW,292,13.0,-999.0,44,-99.99,,,-99.99,,2013-03-20 06:22:00,
2013-03-20 01:32:00,9.0,-8.0,30.23,WNW,292,13.0,-999.0,44,-99.99,,,-99.99,,2013-03-20 06:32:00,
2013-03-20 01:43:00,9.0,-8.0,30.23,WNW,292,13.0,-999.0,44,-99.99,,,-99.99,,2013-03-20 06:43:00,
2013-03-20 01:53:00,8.0,-9.0,30.23,NW,308,7.0,-999.0,45,-99.99,,,-99.99,,2013-03-20 06:53:00,
2013-03-20 02:02:00,8.0,-9.0,30.23,NW,308,7.0,-999.0,45,-99.99,,,-99.99,,2013-03-20 07:02:00,
2013-03-20 02:12:00,8.0,-9.0,30.23,NW,308,7.0,-999.0,45,-99.99,,,-99.99,,2013-03-20 07:12:00,
2013-03-20 02:22:00,8.0,-8.0,30.23,WNW,301,6.0,-999.0,46,-99.99,,,-99.99,,2013-03-20 07:22:00,
2013-03-20 02:32:00,8.0,-8.0,30.23,WNW,301,6.0,-999.0,46,-99.99,,,-99.99,,2013-03-20 07:32:00,
2013-03-20 02:42:00,8.0,-8.0,30.23,WNW,301,6.0,-999.0,46,-99.99,,,-99.99,,2013-03-20 07:42:00,
2013-03-20 02:52:00,7.0,-9.0,30.23,WNW,290,5.0,-999.0,47,-99.99,,,-99.99,,2013-03-20 07:52:00,
2013-03-20 03:02:00,7.0,-9.0,30.23,WNW,290,5.0,-999.0,47,-99.99,,,-99.99,,2013-03-20 08:02:00,
2013-03-20 03:12:00,7.0,-9.0,30.23,WNW,290,5.0,-999.0,47,-99.99,,,-99.99,,2013-03-20 08:12:00,
2013-03-20 03:22:00,7.0,-9.0,30.22,WNW,295,5.0,-999.0,47,-99.99,,,-99.99,,2013-03-20 08:22:00,
2013-03-20 03:32:00,7.0,-9.0,30.22,WNW,295,5.0,-999.0,47,-99.99,,,-99.99,,2013-03-20 08:32:00,
2013-03-20 03:42:00,7.0,-9.0,30.22,WNW,295,5.0,-999.0,47,-99.99,,,-99.99,,2013-03-20 08:42:00,
2013-03-20 03:52:00,7.0,-9.0,30.22,WNW,292,4.0,-999.0,47,-99.99,,,-99.99,,2013-03-20 08:52:00,
2013-03-20 04:02:00,7.0,-9.0,30.22,WNW,292,4.0,-999.0,47,-99.99,,,-99.99,,2013-03-20 09:02:00,
2013-03-20 04:12:00,7.0,-9.0,30.22,WNW,292,4.0,-999.0,47,-99.99,,,-99.99,,2013-03-20 09:12:00,
2013-03-20 04:22:00,7.0,-9.0,30.22,WNW,288,4.0,-999.0,47,-99.99,,,-99.99,,2013-03-20 09:22:00,
2013-03-20 04:32:00,7.0,-9.0,30.22,WNW,288,4.0,-999.0,47,-99.99,,,-99.99,,2013-03-20 09:32:00,
2013-03-20 04:43:00,7.0,-9.0,30.22,WNW,288,4.0,-999.0,47,-99.99,,,-99.99,,2013-03-20 09:43:00,
2013-03-20 04:53:00,7.0,-9.0,30.22,WNW,292,0.0,-999.0,47,-99.99,,,-99.99,,2013-03-20 09:53:00,
2013-03-20 05:03:00,7.0,-9.0,30.22,WNW,292,0.0,-999.0,47,-99.99,,,-99.99,,2013-03-20 10:03:00,
2013-03-20 05:12:00,7.0,-9.0,30.22,WNW,292,0.0,-999.0,47,-99.99,,,-99.99,,2013-03-20 10:12:00,
2013-03-20 05:22:00,6.0,-9.0,30.22,WNW,300,10.0,-999.0,49,-99.99,,,-99.99,,2013-03-20 10:22:00,
2013-03-20 05:32:00,6.0,-9.0,30.22,WNW,300,10.0,-999.0,49,-99.99,,,-99.99,,2013-03-20 10:32:00,
2013-03-20 05:43:00,6.0,-9.0,30.22,WNW,300,10.0,-999.0,49,-99.99,,,-99.99,,2013-03-20 10:43:00,
2013-03-20 05:53:00,6.0,-9.0,30.23,WNW,299,10.0,-999.0,49,-99.99,,,-99.99,,2013-03-20 10:53:00,
2013-03-20 06:03:00,6.0,-9.0,30.23,WNW,299,10.0,-999.0,49,-99.99,,,-99.99,,2013-03-20 11:03:00,
2013-03-20 06:12:00,6.0,-9.0,30.23,WNW,299,10.0,-999.0,49,-99.99,,,-99.99,,2013-03-20 11:12:00,
2013-03-20 06:22:00,6.0,-9.0,30.24,WNW,296,7.0,-999.0,49,-99.99,,,-99.99,,2013-03-20 11:22:00,
2013-03-20 06:32:00,6.0,-9.0,30.24,WNW,296,7.0,-999.0,49,-99.99,,,-99.99,,2013-03-20 11:32:00,
2013-03-20 06:42:00,6.0,-9.0,30.24,WNW,296,7.0,-999.0,49,-99.99,,,-99.99,,2013-03-20 11:42:00,
2013-03-20 06:52:00,5.0,-10.0,30.24,WNW,293,9.0,-999.0,50,-99.99,,,-99.99,,2013-03-20 11:52:00,
2013-03-20 07:02:00,5.0,-10.0,30.24,WNW,293,9.0,-999.0,50,-99.99,,,-99.99,,2013-03-20 12:02:00,
2013-03-20 07:12:00,5.0,-10.0,30.24,WNW,293,9.0,-999.0,50,-99.99,,,-99.99,,2013-03-20 12:12:00,
2013-03-20 07:22:00,5.0,-9.0,30.24,WNW,294,3.0,-999.0,51,-99.99,,,-99.99,,2013-03-20 12:22:00,
2013-03-20 07:32:00,5.0,-9.0,30.24,WNW,294,3.0,-999.0,51,-99.99,,,-99.99,,2013-03-20 12:32:00,
2013-03-20 07:43:00,5.0,-9.0,30.24,WNW,294,3.0,-999.0,51,-99.99,,,-99.99,,2013-03-20 12:43:00,
2013-03-20 07:52:00,5.0,-10.0,30.24,WNW,299,5.0,-999.0,50,-99.99,,,-99.99,,2013-03-20 12:52:00,
2013-03-20 08:03:00,5.0,-10.0,30.24,WNW,299,5.0,-999.0,50,-99.99,,,-99.99,,2013-03-20 13:03:00,
2013-03-20 08:12:00,5.0,-10.0,30.24,WNW,299,5.0,-999.0,50,-99.99,,,-99.99,,2013-03-20 13:12:00,
2013-03-20 08:22:00,6.0,-9.0,30.24,WNW,294,11.0,-999.0,49,-99.99,,,-99.99,,2013-03-20 13:22:00,
2013-03-20 08:32:00,6.0,-9.0,30.24,WNW,294,11.0,-999.0,49,-99.99,,,-99.99,,2013-03-20 13:32:00,
2013-03-20 08:43:00,6.0,-9.0,30.24,WNW,294,11.0,-999.0,49,-99.99,,,-99.99,,2013-03-20 13:43:00,
2013-03-20 08:53:00,7.0,-9.0,30.24,WNW,290,11.0,-999.0,47,-99.99,,,-99.99,,2013-03-20 13:53:00,
2013-03-20 09:02:00,7.0,-9.0,30.24,WNW,290,11.0,-999.0,47,-99.99,,,-99.99,,2013-03-20 14:02:00,
2013-03-20 09:12:00,7.0,-9.0,30.24,WNW,290,11.0,-999.0,47,-99.99,,,-99.99,,2013-03-20 14:12:00,
2013-03-20 09:23:00,8.0,-9.0,30.24,WNW,288,11.0,-999.0,45,-99.99,,,-99.99,,2013-03-20 14:23:00,
2013-03-20 09:33:00,8.0,-9.0,30.24,WNW,288,11.0,-999.0,45,-99.99,,,-99.99,,2013-03-20 14:33:00,
2013-03-20 09:43:00,8.0,-9.0,30.24,WNW,288,11.0,-999.0,45,-99.99,,,-99.99,,2013-03-20 14:43:00,
2013-03-20 09:52:00,10.0,-8.0,30.23,WNW,286,9.0,-999.0,42,-99.99,,,-99.99,,2013-03-20 14:52:00,
2013-03-20 10:02:00,10.0,-8.0,30.23,WNW,286,9.0,-999.0,42,-99.99,,,-99.99,,2013-03-20 15:02:00,
2013-03-20 10:12:00,11.0,-9.0,30.22,NW,309,17.0,-999.0,40,-99.99,,,-99.99,,2013-03-20 15:12:00,
2013-03-20 10:22:00,11.0,-9.0,30.22,NW,309,17.0,-999.0,40,-99.99,,,-99.99,,2013-03-20 15:22:00,
2013-03-20 10:33:00,11.0,-9.0,30.22,NW,309,17.0,-999.0,40,-99.99,,,-99.99,,2013-03-20 15:33:00,
2013-03-20 10:43:00,11.0,-9.0,30.22,NW,309,17.0,-999.0,40,-99.99,,,-99.99,,2013-03-20 15:43:00,
2013-03-20 10:53:00,12.0,-8.0,30.22,NNW,338,5.0,-999.0,40,-99.99,,,-99.99,,2013-03-20 15:53:00,
2013-03-20 11:03:00,12.0,-8.0,30.22,NNW,338,5.0,-999.0,40,-99.99,,,-99.99,,2013-03-20 16:03:00,
2013-03-20 11:12:00,12.0,-8.0,30.22,NNW,338,5.0,-999.0,40,-99.99,,,-99.99,,2013-03-20 16:12:00,
2013-03-20 11:23:00,12.0,-7.0,30.22,NW,312,18.0,-999.0,41,-99.99,,,-99.99,,2013-03-20 16:23:00,
2013-03-20 11:32:00,12.0,-7.0,30.22,NW,312,18.0,-999.0,41,-99.99,,,-99.99,,2013-03-20 16:32:00,
2013-03-20 11:43:00,12.0,-7.0,30.22,NW,312,18.0,-999.0,41,-99.99,,,-99.99,,2013-03-20 16:43:00,
2013-03-20 11:53:00,13.0,-7.0,30.22,NW,309,9.0,-999.0,40,-99.99,,,-99.99,,2013-03-20 16:53:00,
2013-03-20 12:03:00,13.0,-7.0,30.22,NW,309,9.0,-999.0,40,-99.99,,,-99.99,,2013-03-20 17:03:00,
2013-03-20 12:12:00,13.0,-7.0,30.22,NW,309,9.0,-999.0,40,-99.99,,,-99.99,,2013-03-20 17:12:00,
2013-03-20 12:22:00,14.0,-5.0,30.21,NW,306,5.0,-999.0,41,-99.99,,,-99.99,,2013-03-20 17:22:00,
2013-03-20 12:32:00,14.0,-5.0,30.21,NW,306,5.0,-999.0,41,-99.99,,,-99.99,,2013-03-20 17:32:00,
2013-03-20 12:42:00,14.0,-5.0,30.21,NW,306,5.0,-999.0,41,-99.99,,,-99.99,,2013-03-20 17:42:00,
2013-03-20 12:53:00,15.0,-6.0,30.20,WNW,303,14.0,-999.0,38,-99.99,,,-99.99,,2013-03-20 17:53:00,
2013-03-20 13:02:00,15.0,-6.0,30.20,WNW,303,14.0,-999.0,38,-99.99,,,-99.99,,2013-03-20 18:02:00,
2013-03-20 13:12:00,15.0,-6.0,30.20,WNW,303,14.0,-999.0,38,-99.99,,,-99.99,,2013-03-20 18:12:00,
2013-03-20 13:22:00,16.0,-5.0,30.19,NNW,331,7.0,-999.0,39,-99.99,,,-99.99,,2013-03-20 18:22:00,
2013-03-20 13:33:00,16.0,-5.0,30.19,NNW,331,7.0,-999.0,39,-99.99,,,-99.99,,2013-03-20 18:33:00,
2013-03-20 13:43:00,16.0,-5.0,30.19,NNW,331,7.0,-999.0,39,-99.99,,,-99.99,,2013-03-20 18:43:00,
2013-03-20 13:52:00,16.0,-5.0,30.19,West,274,10.0,-999.0,38,-99.99,,,-99.99,,2013-03-20 18:52:00,
2013-03-20 14:02:00,16.0,-5.0,30.19,West,274,10.0,-999.0,38,-99.99,,,-99.99,,2013-03-20 19:02:00,
2013-03-20 14:12:00,16.0,-5.0,30.19,West,274,10.0,-999.0,38,-99.99,,,-99.99,,2013-03-20 19:12:00,
2013-03-20 14:22:00,17.0,-5.0,30.17,NW,310,2.0,-999.0,37,-99.99,,,-99.99,,2013-03-20 19:22:00,
2013-03-20 14:32:00,17.0,-5.0,30.17,NW,310,2.0,-999.0,37,-99.99,,,-99.99,,2013-03-20 19:32:00,
2013-03-20 14:42:00,17.0,-5.0,30.17,NW,310,2.0,-999.0,37,-99.99,,,-99.99,,2013-03-20 19:42:00,
2013-03-20 14:53:00,18.0,-4.0,30.17,WNW,292,3.0,-999.0,36,-99.99,,,-99.99,,2013-03-20 19:53:00,
2013-03-20 15:02:00,18.0,-4.0,30.17,WNW,292,3.0,-999.0,36,-99.99,,,-99.99,,2013-03-20 20:02:00,
2013-03-20 15:13:00,18.0,-4.0,30.17,WNW,292,3.0,-999.0,36,-99.99,,,-99.99,,2013-03-20 20:13:00,
2013-03-20 15:22:00,19.0,-4.0,30.16,NNW,331,6.0,-999.0,36,-99.99,,,-99.99,,2013-03-20 20:22:00,
2013-03-20 15:32:00,19.0,-4.0,30.16,NNW,331,6.0,-999.0,36,-99.99,,,-99.99,,2013-03-20 20:32:00,
2013-03-20 15:42:00,19.0,-4.0,30.16,NNW,331,6.0,-999.0,36,-99.99,,,-99.99,,2013-03-20 20:42:00,
2013-03-20 15:53:00,19.0,-4.0,30.16,NW,314,4.0,-999.0,35,-99.99,,,-99.99,,2013-03-20 20:53:00,
2013-03-20 16:02:00,19.0,-4.0,30.16,NW,314,4.0,-999.0,35,-99.99,,,-99.99,,2013-03-20 21:02:00,
2013-03-20 16:12:00,19.0,-4.0,30.16,NW,314,4.0,-999.0,35,-99.99,,,-99.99,,2013-03-20 21:12:00,
2013-03-20 16:22:00,20.0,-3.0,30.15,NW,308,5.0,-999.0,35,-99.99,,,-99.99,,2013-03-20 21:22:00,
2013-03-20 16:33:00,20.0,-3.0,30.15,NW,308,5.0,-999.0,35,-99.99,,,-99.99,,2013-03-20 21:33:00,
2013-03-20 16:42:00,20.0,-3.0,30.15,NW,308,5.0,-999.0,35,-99.99,,,-99.99,,2013-03-20 21:42:00,
2013-03-20 16:53:00,21.0,-3.0,30.14,WNW,299,4.0,-999.0,34,-99.99,,,-99.99,,2013-03-20 21:53:00,
2013-03-20 17:03:00,21.0,-3.0,30.14,WNW,299,4.0,-999.0,34,-99.99,,,-99.99,,2013-03-20 22:03:00,
2013-03-20 17:12:00,21.0,-3.0,30.14,WNW,299,4.0,-999.0,34,-99.99,,,-99.99,,2013-03-20 22:12:00,
2013-03-20 17:23:00,21.0,-2.0,30.14,WNW,282,1.0,-999.0,35,-99.99,,,-99.99,,2013-03-20 22:23:00,
2013-03-20 17:32:00,21.0,-2.0,30.14,WNW,282,1.0,-999.0,35,-99.99,,,-99.99,,2013-03-20 22:32:00,
2013-03-20 17:43:00,21.0,-2.0,30.14,WNW,282,1.0,-999.0,35,-99.99,,,-99.99,,2013-03-20 22:43:00,
2013-03-20 17:52:00,20.0,-1.0,30.14,West,280,6.0,-999.0,38,-99.99,,,-99.99,,2013-03-20 22:52:00,
2013-03-20 18:02:00,20.0,-1.0,30.14,West,280,6.0,-999.0,38,-99.99,,,-99.99,,2013-03-20 23:02:00,
2013-03-20 18:12:00,20.0,-1.0,30.14,West,280,6.0,-999.0,38,-99.99,,,-99.99,,2013-03-20 23:12:00,
2013-03-20 18:22:00,20.0,-1.0,30.15,West,270,5.0,-999.0,38,-99.99,,,-99.99,,2013-03-20 23:22:00,
2013-03-20 18:32:00,20.0,-1.0,30.15,West,270,5.0,-999.0,38,-99.99,,,-99.99,,2013-03-20 23:32:00,
2013-03-20 18:43:00,20.0,-1.0,30.15,West,270,5.0,-999.0,38,-99.99,,,-99.99,,2013-03-20 23:43:00,
2013-03-20 18:53:00,19.0,-2.0,30.15,WNW,287,6.0,-999.0,39,-99.99,,,-99.99,,2013-03-20 23:53:00,
2013-03-20 19:02:00,19.0,-2.0,30.15,WNW,287,6.0,-999.0,39,-99.99,,,-99.99,,2013-03-21 00:02:00,
2013-03-20 19:12:00,19.0,-2.0,30.15,WNW,287,6.0,-999.0,39,-99.99,,,-99.99,,2013-03-21 00:12:00,
2013-03-20 19:23:00,18.0,-3.0,30.15,WNW,299,4.0,-999.0,38,-99.99,,,-99.99,,2013-03-21 00:23:00,
2013-03-20 19:32:00,18.0,-3.0,30.15,WNW,299,4.0,-999.0,38,-99.99,,,-99.99,,2013-03-21 00:32:00,
2013-03-20 19:42:00,18.0,-3.0,30.15,WNW,299,4.0,-999.0,38,-99.99,,,-99.99,,2013-03-21 00:42:00,
2013-03-20 19:52:00,17.0,-3.0,30.16,West,280,7.0,-999.0,40,-99.99,,,-99.99,,2013-03-21 00:52:00,
2013-03-20 20:02:00,17.0,-3.0,30.16,West,280,7.0,-999.0,40,-99.99,,,-99.99,,2013-03-21 01:02:00,
2013-03-20 20:12:00,17.0,-3.0,30.16,West,280,7.0,-999.0,40,-99.99,,,-99.99,,2013-03-21 01:12:00,
2013-03-20 20:22:00,16.0,-3.0,30.16,WNW,286,2.0,-999.0,42,-99.99,,,-99.99,,2013-03-21 01:22:00,
2013-03-20 20:32:00,16.0,-3.0,30.16,WNW,286,2.0,-999.0,42,-99.99,,,-99.99,,2013-03-21 01:32:00,
2013-03-20 20:42:00,16.0,-3.0,30.16,WNW,286,2.0,-999.0,42,-99.99,,,-99.99,,2013-03-21 01:42:00,
2013-03-20 20:53:00,15.0,-4.0,30.16,WNW,295,3.0,-999.0,42,-99.99,,,-99.99,,2013-03-21 01:53:00,
2013-03-20 21:02:00,15.0,-4.0,30.16,WNW,295,3.0,-999.0,42,-99.99,,,-99.99,,2013-03-21 02:02:00,
2013-03-20 21:12:00,15.0,-4.0,30.16,WNW,295,3.0,-999.0,42,-99.99,,,-99.99,,2013-03-21 02:12:00,
2013-03-20 21:22:00,14.0,-4.0,30.17,WNW,291,4.0,-999.0,43,-99.99,,,-99.99,,2013-03-21 02:22:00,
2013-03-20 21:32:00,14.0,-4.0,30.17,WNW,291,4.0,-999.0,43,-99.99,,,-99.99,,2013-03-21 02:32:00,
2013-03-20 21:42:00,14.0,-4.0,30.17,WNW,291,4.0,-999.0,43,-99.99,,,-99.99,,2013-03-21 02:42:00,
2013-03-20 21:52:00,14.0,-4.0,30.17,WNW,291,4.0,-999.0,43,-99.99,,,-99.99,,2013-03-21 02:52:00,
2013-03-20 22:02:00,14.0,-4.0,30.16,WNW,293,6.0,-999.0,44,-99.99,,,-99.99,,2013-03-21 03:02:00,
2013-03-20 22:12:00,14.0,-4.0,30.16,WNW,293,6.0,-999.0,44,-99.99,,,-99.99,,2013-03-21 03:12:00,
2013-03-20 22:22:00,13.0,-4.0,30.16,WNW,292,3.0,-999.0,45,-99.99,,,-99.99,,2013-03-21 03:22:00,
2013-03-20 22:33:00,13.0,-4.0,30.16,WNW,292,3.0,-999.0,45,-99.99,,,-99.99,,2013-03-21 03:33:00,
2013-03-20 22:43:00,13.0,-4.0,30.16,WNW,292,3.0,-999.0,45,-99.99,,,-99.99,,2013-03-21 03:43:00,
2013-03-20 22:53:00,12.0,-4.0,30.16,WNW,296,5.0,-999.0,47,-99.99,,,-99.99,,2013-03-21 03:53:00,
2013-03-20 23:03:00,12.0,-4.0,30.16,WNW,296,5.0,-999.0,47,-99.99,,,-99.99,,2013-03-21 04:03:00,
2013-03-20 23:13:00,12.0,-4.0,30.16,WNW,296,5.0,-999.0,47,-99.99,,,-99.99,,2013-03-21 04:13:00,
2013-03-20 23:23:00,11.0,-5.0,30.16,WNW,296,5.0,-999.0,48,-99.99,,,-99.99,,2013-03-21 04:23:00,
2013-03-20 23:32:00,11.0,-5.0,30.16,WNW,296,5.0,-999.0,48,-99.99,,,-99.99,,2013-03-21 04:32:00,
2013-03-20 23:43:00,11.0,-5.0,30.16,WNW,296,5.0,-999.0,48,-99.99,,,-99.99,,2013-03-21 04:43:00,
2013-03-20 23:53:00,10.0,-5.0,30.16,WNW,296,2.0,-999.0,50,-99.99,,,-99.99,,2013-03-21 04:53:00,